Time,TemperatureF,DewpointF,PressureIn,WindDirection,WindDirectionDegrees,WindSpeedMPH,WindSpeedGustMPH,Humidity,HourlyPrecipIn,Conditions,Clouds,dailyrainin,SoftwareType,DateUTC
2013-03-22 00:01:00,14.4,6.2,29.99,WSW,245,0.9,1.4,69,0.00,,,0.00,WUHU216HW,2013-03-22 05:01:00,
2013-03-22 00:11:00,14.8,7.5,29.99,West,281,0.4,0.4,72,0.00,,,0.00,WUHU216HW,2013-03-22 05:11:00,
2013-03-22 00:21:00,14.6,6.7,29.99,West,267,0.5,1.2,70,0.00,,,0.00,WUHU216HW,2013-03-22 05:21:00,
2013-03-22 00:31:00,14.2,6.3,29.99,WSW,241,0.8,1.0,70,0.00,,,0.00,WUHU216HW,2013-03-22 05:31:00,
2013-03-22 00:42:00,13.7,5.8,29.99,SW,225,0.5,0.8,70,0.00,,,0.00,WUHU216HW,2013-03-22 05:42:00,
2013-03-22 00:52:00,13.5,5.9,29.99,SW,233,0.7,1.0,71,0.00,,,0.00,WUHU216HW,2013-03-22 05:52:00,
2013-03-22 01:02:00,12.6,5.1,29.99,SW,225,0.4,0.4,71,0.00,,,0.00,WUHU216HW,2013-03-22 06:02:00,
2013-03-22 01:13:00,12.2,4.7,29.99,SW,225,0.9,1.2,71,0.00,,,0.00,WUHU216HW,2013-03-22 06:13:00,
2013-03-22 01:24:00,12.2,5.0,29.99,SW,229,0.8,1.4,72,0.00,,,0.00,WUHU216HW,2013-03-22 06:24:00,
2013-03-22 01:34:00,12.6,5.7,29.99,WSW,255,0.6,1.0,73,0.00,,,0.00,WUHU216HW,2013-03-22 06:34:00,
2013-03-22 01:45:00,12.2,5.0,29.99,SW,225,1.0,1.2,72,0.00,,,0.00,WUHU216HW,2013-03-22 06:45:00,
2013-03-22 01:55:00,12.2,5.3,29.99,SW,225,1.3,1.4,73,0.00,,,0.00,WUHU216HW,2013-03-22 06:55:00,
2013-03-22 02:05:00,11.9,5.0,29.99,SW,225,0.5,0.8,73,0.00,,,0.00,WUHU216HW,2013-03-22 07:05:00,
2013-03-22 02:16:00,11.5,4.6,29.99,SW,227,0.5,0.8,73,0.00,,,0.00,WUHU216HW,2013-03-22 07:16:00,
2013-03-22 02:26:00,11.3,4.7,29.99,NW,315,0.4,0.4,74,0.00,,,0.00,WUHU216HW,2013-03-22 07:26:00,
2013-03-22 02:37:00,11.2,4.6,29.99,SW,225,0.6,0.8,74,0.00,,,0.00,WUHU216HW,2013-03-22 07:37:00,
2013-03-22 02:47:00,10.6,4.0,29.99,SSW,212,0.5,0.8,74,0.00,,,0.00,WUHU216HW,2013-03-22 07:47:00,
2013-03-22 02:57:00,10.1,3.3,29.99,South,185,0.6,1.0,73,0.00,,,0.00,WUHU216HW,2013-03-22 07:57:00,
2013-03-22 03:08:00,9.5,2.7,29.99,North,0,0.0,0.0,73,0.00,,,0.00,WUHU216HW,2013-03-22 08:08:00,
2013-03-22 03:17:00,9.5,3.0,29.99,SW,218,0.6,1.0,74,0.00,,,0.00,WUHU216HW,2013-03-22 08:17:00,
2013-03-22 03:29:00,9.7,3.4,29.99,SW,225,0.6,0.8,75,0.00,,,0.00,WUHU216HW,2013-03-22 08:29:00,
2013-03-22 03:39:00,10.1,3.8,29.99,SW,220,1.1,1.4,75,0.00,,,0.00,WUHU216HW,2013-03-22 08:39:00,
2013-03-22 03:49:00,10.3,4.0,29.99,SW,220,1.2,1.4,75,0.00,,,0.00,WUHU216HW,2013-03-22 08:49:00,
2013-03-22 04:00:00,10.1,3.8,29.99,SW,225,0.8,1.2,75,0.00,,,0.00,WUHU216HW,2013-03-22 09:00:00,
2013-03-22 04:10:00,10.1,3.8,29.99,SW,225,0.4,0.4,75,0.00,,,0.00,WUHU216HW,2013-03-22 09:10:00,
2013-03-22 04:21:00,10.1,3.8,29.99,WSW,248,0.6,0.8,75,0.00,,,0.00,WUHU216HW,2013-03-22 09:21:00,
2013-03-22 04:31:00,10.3,4.0,29.99,SW,225,0.7,1.2,75,0.00,,,0.00,WUHU216HW,2013-03-22 09:31:00,
2013-03-22 04:41:00,9.7,3.4,29.99,SW,220,0.7,1.0,75,0.00,,,0.00,WUHU216HW,2013-03-22 09:41:00,
2013-03-22 04:52:00,9.4,3.2,30.00,SW,224,0.7,1.2,75,0.00,,,0.00,WUHU216HW,2013-03-22 09:52:00,
2013-03-22 05:01:00,9.7,3.7,29.99,West,265,1.0,1.8,76,0.00,,,0.00,WUHU216HW,2013-03-22 10:01:00,
2013-03-22 05:07:00,9.9,3.9,29.99,West,264,0.8,1.8,76,0.00,,,0.00,WUHU216HW,2013-03-22 10:07:00,
2013-03-22 05:16:00,9.7,3.7,29.99,SW,225,0.6,1.4,76,0.00,,,0.00,WUHU216HW,2013-03-22 10:16:00,
2013-03-22 05:26:00,9.4,3.4,29.99,SW,218,0.6,1.0,76,0.00,,,0.00,WUHU216HW,2013-03-22 10:26:00,
2013-03-22 05:37:00,9.0,3.1,30.00,SW,218,0.8,1.2,76,0.00,,,0.00,WUHU216HW,2013-03-22 10:37:00,
2013-03-22 05:47:00,9.2,3.2,29.99,SW,225,1.1,1.8,76,0.00,,,0.00,WUHU216HW,2013-03-22 10:47:00,
2013-03-22 05:57:00,9.0,3.1,29.99,SW,225,0.6,1.0,76,0.00,,,0.00,WUHU216HW,2013-03-22 10:57:00,
2013-03-22 06:08:00,8.8,3.1,29.99,West,270,0.6,0.8,77,0.00,,,0.00,WUHU216HW,2013-03-22 11:08:00,
2013-03-22 06:19:00,8.8,3.1,30.00,WSW,241,0.5,0.8,77,0.00,,,0.00,WUHU216HW,2013-03-22 11:19:00,
2013-03-22 06:29:00,8.8,3.1,30.00,WSW,243,0.6,1.2,77,0.00,,,0.00,WUHU216HW,2013-03-22 11:29:00,
2013-03-22 06:39:00,9.0,3.3,29.99,West,271,0.5,1.2,77,0.00,,,0.00,WUHU216HW,2013-03-22 11:39:00,
2013-03-22 06:50:00,9.0,3.6,29.99,West,263,0.6,1.2,78,0.00,,,0.00,WUHU216HW,2013-03-22 11:50:00,
2013-03-22 07:00:00,9.7,4.0,29.99,SW,227,0.6,1.2,77,0.00,,,0.00,WUHU216HW,2013-03-22 12:00:00,
2013-03-22 07:11:00,9.6,3.9,29.99,SW,225,0.4,0.4,77,0.00,,,0.00,WUHU216HW,2013-03-22 12:11:00,
2013-03-22 07:21:00,12.4,7.2,29.99,WSW,248,0.4,0.4,79,0.00,,,0.00,WUHU216HW,2013-03-22 12:21:00,
2013-03-22 07:31:00,16.1,11.1,29.99,WSW,243,0.4,0.4,80,0.00,,,0.00,WUHU216HW,2013-03-22 12:31:00,
2013-03-22 07:42:00,18.0,12.1,29.99,SW,225,0.3,0.4,77,0.00,,,0.00,WUHU216HW,2013-03-22 12:42:00,
2013-03-22 07:52:00,18.6,9.6,29.99,NNW,346,0.5,0.8,67,0.00,,,0.00,WUHU216HW,2013-03-22 12:52:00,
2013-03-22 08:03:00,16.5,7.6,29.99,North,359,0.7,1.2,67,0.00,,,0.00,WUHU216HW,2013-03-22 13:03:00,
2013-03-22 08:13:00,16.0,7.8,29.99,North,5,0.7,1.4,69,0.00,,,0.00,WUHU216HW,2013-03-22 13:13:00,
2013-03-22 08:24:00,19.7,11.3,29.99,North,2,0.4,0.8,69,0.00,,,0.00,WUHU216HW,2013-03-22 13:24:00,
2013-03-22 08:34:00,18.6,8.2,29.99,North,0,0.9,1.2,63,0.00,,,0.00,WUHU216HW,2013-03-22 13:34:00,
2013-03-22 08:44:00,17.5,7.8,30.00,North,349,0.9,2.0,65,0.00,,,0.00,WUHU216HW,2013-03-22 13:44:00,
2013-03-22 08:55:00,17.9,8.2,29.99,North,354,1.2,1.8,65,0.00,,,0.00,WUHU216HW,2013-03-22 13:55:00,
2013-03-22 09:05:00,19.4,9.7,30.00,NNW,345,0.8,1.2,65,0.00,,,0.00,WUHU216HW,2013-03-22 14:05:00,
2013-03-22 09:16:00,18.8,8.8,30.00,North,356,1.3,3.2,64,0.00,,,0.00,WUHU216HW,2013-03-22 14:16:00,
2013-03-22 09:26:00,19.5,9.0,30.01,North,350,1.3,2.2,63,0.00,,,0.00,WUHU216HW,2013-03-22 14:26:00,
2013-03-22 09:36:00,18.3,8.6,30.00,North,358,2.1,2.8,65,0.00,,,0.00,WUHU216HW,2013-03-22 14:36:00,
2013-03-22 09:47:00,18.9,9.2,30.01,North,354,2.0,2.4,65,0.00,,,0.00,WUHU216HW,2013-03-22 14:47:00,
2013-03-22 09:57:00,19.7,9.9,30.00,North,355,1.7,2.8,65,0.00,,,0.00,WUHU216HW,2013-03-22 14:57:00,
2013-03-22 10:08:00,20.8,11.0,30.00,North,352,1.8,2.8,65,0.00,,,0.00,WUHU216HW,2013-03-22 15:08:00,
2013-03-22 10:18:00,22.0,11.8,30.01,NNW,338,1.7,2.8,64,0.00,,,0.00,WUHU216HW,2013-03-22 15:18:00,
2013-03-22 10:29:00,25.2,13.7,30.01,NW,315,1.5,2.8,61,0.00,,,0.00,WUHU216HW,2013-03-22 15:29:00,
2013-03-22 10:39:00,26.6,14.7,30.01,WNW,296,1.2,2.2,60,0.00,,,0.00,WUHU216HW,2013-03-22 15:39:00,
2013-03-22 10:49:00,26.7,14.0,30.01,NW,306,1.2,2.8,58,0.00,,,0.00,WUHU216HW,2013-03-22 15:49:00,
2013-03-22 10:59:00,23.4,11.3,30.01,North,354,1.6,2.0,59,0.00,,,0.00,WUHU216HW,2013-03-22 15:59:00,
2013-03-22 11:10:00,23.4,12.0,30.01,North,349,1.5,2.2,61,0.00,,,0.00,WUHU216HW,2013-03-22 16:10:00,
2013-03-22 11:21:00,24.5,13.0,30.01,North,350,1.5,2.4,61,0.00,,,0.00,WUHU216HW,2013-03-22 16:21:00,
2013-03-22 11:31:00,27.1,14.8,30.01,NW,312,1.7,3.0,59,0.00,,,0.00,WUHU216HW,2013-03-22 16:31:00,
2013-03-22 11:42:00,25.8,13.5,30.01,NNW,327,1.4,2.8,59,0.00,,,0.00,WUHU216HW,2013-03-22 16:42:00,
2013-03-22 11:52:00,28.0,16.4,30.02,NW,311,2.4,4.9,61,0.00,,,0.00,WUHU216HW,2013-03-22 16:52:00,
2013-03-22 12:02:00,29.3,16.5,30.02,WSW,241,2.1,4.2,58,0.00,,,0.00,WUHU216HW,2013-03-22 17:02:00,
2013-03-22 12:13:00,30.8,17.1,30.02,West,270,2.4,3.7,56,0.00,,,0.00,WUHU216HW,2013-03-22 17:13:00,
2013-03-22 12:23:00,29.5,14.1,30.01,NW,319,1.6,3.4,52,0.00,,,0.00,WUHU216HW,2013-03-22 17:23:00,
2013-03-22 12:34:00,28.8,15.2,30.01,WNW,299,2.3,4.4,56,0.00,,,0.00,WUHU216HW,2013-03-22 17:34:00,
2013-03-22 12:44:00,27.0,13.5,30.01,NNW,338,1.6,2.8,56,0.00,,,0.00,WUHU216HW,2013-03-22 17:44:00,
2013-03-22 12:54:00,29.3,16.0,30.01,WNW,295,1.3,3.4,57,0.00,,,0.00,WUHU216HW,2013-03-22 17:54:00,
2013-03-22 13:05:00,27.7,14.1,30.01,North,352,2.2,3.7,56,0.00,,,0.00,WUHU216HW,2013-03-22 18:05:00,
2013-03-22 13:15:00,28.1,15.7,30.01,NW,315,2.0,2.8,59,0.00,,,0.00,WUHU216HW,2013-03-22 18:15:00,
2013-03-22 13:26:00,28.8,14.8,30.01,NW,308,2.1,3.7,55,0.00,,,0.00,WUHU216HW,2013-03-22 18:26:00,
2013-03-22 13:36:00,28.6,15.0,30.01,NW,322,1.8,3.4,56,0.00,,,0.00,WUHU216HW,2013-03-22 18:36:00,
2013-03-22 13:46:00,28.5,15.7,30.00,NW,318,2.3,3.0,58,0.00,,,0.00,WUHU216HW,2013-03-22 18:46:00,
2013-03-22 13:57:00,28.7,15.1,30.00,WNW,294,2.1,3.7,56,0.00,,,0.00,WUHU216HW,2013-03-22 18:57:00,
2013-03-22 14:07:00,28.7,14.7,29.99,NW,307,2.5,3.7,55,0.00,,,0.00,WUHU216HW,2013-03-22 19:07:00,
2013-03-22 14:18:00,27.4,15.0,29.99,NNW,348,2.2,4.7,59,0.00,,,0.00,WUHU216HW,2013-03-22 19:18:00,
2013-03-22 14:28:00,29.2,15.9,29.99,NW,310,2.2,4.0,57,0.00,,,0.00,WUHU216HW,2013-03-22 19:28:00,
2013-03-22 14:39:00,28.8,15.6,29.99,NW,320,2.2,3.4,57,0.00,,,0.00,WUHU216HW,2013-03-22 19:39:00,
2013-03-22 14:49:00,28.2,15.4,29.99,NNW,334,2.2,3.2,58,0.00,,,0.00,WUHU216HW,2013-03-22 19:49:00,
2013-03-22 14:59:00,28.9,15.3,29.99,NNW,328,2.3,3.4,56,0.00,,,0.00,WUHU216HW,2013-03-22 19:59:00,
2013-03-22 15:10:00,29.2,16.3,29.99,NNW,328,1.8,2.8,58,0.00,,,0.00,WUHU216HW,2013-03-22 20:10:00,
2013-03-22 15:20:00,30.1,17.2,29.99,WNW,295,2.2,3.2,58,0.00,,,0.00,WUHU216HW,2013-03-22 20:20:00,
2013-03-22 15:30:00,29.5,16.2,29.99,NW,314,2.2,4.4,57,0.00,,,0.00,WUHU216HW,2013-03-22 20:30:00,
2013-03-22 15:41:00,28.8,15.5,29.98,NNW,334,2.4,3.4,57,0.00,,,0.00,WUHU216HW,2013-03-22 20:41:00,
2013-03-22 15:51:00,28.8,15.6,29.98,NW,326,2.0,3.7,57,0.00,,,0.00,WUHU216HW,2013-03-22 20:51:00,
2013-03-22 16:02:00,29.1,15.8,29.99,NNW,345,2.1,3.7,57,0.00,,,0.00,WUHU216HW,2013-03-22 21:02:00,
2013-03-22 16:25:00,28.9,15.7,29.99,North,0,2.0,2.0,57,0.00,,,0.00,WUHU216HW,2013-03-22 21:25:00,
2013-03-22 16:31:00,29.1,15.9,29.99,NNW,342,1.9,2.4,57,0.00,,,0.00,WUHU216HW,2013-03-22 21:31:00,
2013-03-22 16:41:00,29.2,15.5,29.99,NNW,346,2.3,3.4,56,0.00,,,0.00,WUHU216HW,2013-03-22 21:41:00,
2013-03-22 16:52:00,28.9,15.3,29.99,NNW,345,2.4,4.0,56,0.00,,,0.00,WUHU216HW,2013-03-22 21:52:00,
2013-03-22 17:02:00,28.8,15.2,29.99,NNW,346,2.4,3.0,56,0.00,,,0.00,WUHU216HW,2013-03-22 22:02:00,
2013-03-22 17:12:00,28.7,15.5,30.00,North,349,3.2,5.9,57,0.00,,,0.00,WUHU216HW,2013-03-22 22:12:00,
2013-03-22 17:22:00,28.8,15.6,30.00,NNW,344,2.0,2.8,57,0.00,,,0.00,WUHU216HW,2013-03-22 22:22:00,
2013-03-22 17:32:00,28.7,15.5,30.00,North,353,3.0,4.4,57,0.00,,,0.00,WUHU216HW,2013-03-22 22:32:00,
2013-03-22 17:42:00,29.0,16.1,30.01,North,358,1.7,2.2,58,0.00,,,0.00,WUHU216HW,2013-03-22 22:42:00,
2013-03-22 17:52:00,28.8,16.0,30.01,North,356,1.8,3.7,58,0.00,,,0.00,WUHU216HW,2013-03-22 22:52:00,
2013-03-22 18:02:00,28.9,16.1,30.01,NNW,347,1.5,2.2,58,0.00,,,0.00,WUHU216HW,2013-03-22 23:02:00,
2013-03-22 18:12:00,28.9,16.1,30.01,NNW,344,1.5,2.0,58,0.00,,,0.00,WUHU216HW,2013-03-22 23:12:00,
2013-03-22 18:22:00,28.8,16.0,30.01,NNW,343,1.0,1.8,58,0.00,,,0.00,WUHU216HW,2013-03-22 23:22:00,
2013-03-22 18:32:00,28.7,16.3,30.01,NNW,341,0.9,1.2,59,0.00,,,0.00,WUHU216HW,2013-03-22 23:32:00,
2013-03-22 18:42:00,28.4,16.4,30.02,NNW,338,0.9,1.4,60,0.00,,,0.00,WUHU216HW,2013-03-22 23:42:00,
2013-03-22 18:52:00,28.1,16.5,30.02,NNW,328,0.8,1.0,61,0.00,,,0.00,WUHU216HW,2013-03-22 23:52:00,
2013-03-22 19:02:00,27.7,16.1,30.02,North,350,0.6,1.0,61,0.00,,,0.00,WUHU216HW,2013-03-23 00:02:00,
2013-03-22 19:12:00,27.4,16.2,30.02,NNW,338,0.3,0.4,62,0.00,,,0.00,WUHU216HW,2013-03-23 00:12:00,
2013-03-22 19:23:00,26.8,15.6,30.02,North,0,0.0,0.0,62,0.00,,,0.00,WUHU216HW,2013-03-23 00:23:00,
2013-03-22 19:33:00,26.1,15.0,30.02,North,0,0.0,0.0,62,0.00,,,0.00,WUHU216HW,2013-03-23 00:33:00,
2013-03-22 19:43:00,25.4,14.7,30.02,North,0,0.0,0.0,63,0.00,,,0.00,WUHU216HW,2013-03-23 00:43:00,
2013-03-22 19:53:00,24.8,14.1,30.01,North,0,0.0,0.0,63,0.00,,,0.00,WUHU216HW,2013-03-23 00:53:00,
2013-03-22 20:03:00,24.3,14.0,30.01,North,0,0.0,0.0,64,0.00,,,0.00,WUHU216HW,2013-03-23 01:03:00,
2013-03-22 20:13:00,23.8,14.2,30.02,North,0,0.0,0.0,66,0.00,,,0.00,WUHU216HW,2013-03-23 01:13:00,
2013-03-22 20:23:00,23.4,13.8,30.02,NNW,338,0.6,0.8,66,0.00,,,0.00,WUHU216HW,2013-03-23 01:23:00,
2013-03-22 20:33:00,22.5,13.0,30.02,NNE,20,1.0,1.2,66,0.00,,,0.00,WUHU216HW,2013-03-23 01:33:00,
2013-03-22 20:43:00,21.6,12.5,30.01,North,0,0.0,0.0,67,0.00,,,0.00,WUHU216HW,2013-03-23 01:43:00,
2013-03-22 20:53:00,21.6,12.5,30.01,North,0,0.0,0.0,67,0.00,,,0.00,WUHU216HW,2013-03-23 01:53:00,
2013-03-22 21:03:00,21.2,12.7,30.01,NNE,23,0.8,1.2,69,0.00,,,0.00,WUHU216HW,2013-03-23 02:03:00,
2013-03-22 21:13:00,21.6,14.1,30.02,North,0,0.2,0.2,72,0.00,,,0.00,WUHU216HW,2013-03-23 02:13:00,
2013-03-22 21:23:00,21.4,13.6,30.02,North,0,0.0,0.0,71,0.00,,,0.00,WUHU216HW,2013-03-23 02:23:00,
2013-03-22 21:33:00,20.7,12.6,30.02,North,0,0.0,0.0,70,0.00,,,0.00,WUHU216HW,2013-03-23 02:33:00,
2013-03-22 21:44:00,19.8,11.7,30.03,North,0,0.0,0.0,70,0.00,,,0.00,WUHU216HW,2013-03-23 02:44:00,
2013-03-22 21:54:00,18.9,11.2,30.03,North,0,0.0,0.0,71,0.00,,,0.00,WUHU216HW,2013-03-23 02:54:00,
2013-03-22 22:04:00,19.1,12.0,30.03,North,0,0.0,0.0,73,0.00,,,0.00,WUHU216HW,2013-03-23 03:04:00,
2013-03-22 22:14:00,19.3,12.2,30.04,North,0,0.0,0.0,73,0.00,,,0.00,WUHU216HW,2013-03-23 03:14:00,
2013-03-22 22:24:00,18.4,11.0,30.04,NE,45,1.0,1.2,72,0.00,,,0.00,WUHU216HW,2013-03-23 03:24:00,
2013-03-22 22:34:00,18.0,10.9,30.04,NE,45,0.6,0.8,73,0.00,,,0.00,WUHU216HW,2013-03-23 03:34:00,
2013-03-22 22:44:00,18.2,11.7,30.04,North,0,0.0,0.0,75,0.00,,,0.00,WUHU216HW,2013-03-23 03:44:00,
2013-03-22 22:54:00,18.4,11.6,30.04,NE,45,0.4,0.4,74,0.00,,,0.00,WUHU216HW,2013-03-23 03:54:00,
2013-03-22 23:04:00,18.4,12.2,30.04,NE,45,0.4,0.4,76,0.00,,,0.00,WUHU216HW,2013-03-23 04:04:00,
2013-03-22 23:14:00,17.6,10.8,30.04,NE,45,1.2,1.2,74,0.00,,,0.00,WUHU216HW,2013-03-23 04:14:00,
2013-03-22 23:24:00,17.3,10.8,30.04,NE,48,1.3,2.0,75,0.00,,,0.00,WUHU216HW,2013-03-23 04:24:00,
2013-03-22 23:34:00,17.5,12.2,30.04,North,0,0.0,0.0,79,0.00,,,0.00,WUHU216HW,2013-03-23 04:34:00,
2013-03-22 23:44:00,16.9,11.3,30.04,NNE,17,0.8,1.0,78,0.00,,,0.00,WUHU216HW,2013-03-23 04:44:00,
2013-03-22 23:54:00,17.1,11.8,30.04,North,0,0.0,0.0,79,0.00,,,0.00,WUHU216HW,2013-03-23 04:54:00,